EW5655 Weather Reports


Display with metric or nautical units.
time (UTC)temp
F
wind
direction
speed
MPH
gust
MPH
rain 1hr
in
rain 24hr
in
rain mn
in
humidity
%
barometer
mb
20260509233032 92 267 2.0 10.0 0.00 0.00 0.00 10 1011.3
20260509232532 92 242 2.0 11.0 0.00 0.00 0.00 10 1011.3
20260509232031 92 276 6.0 11.0 0.00 0.00 0.00 9 1011.4
20260509231539 92 210 3.0 13.0 0.00 0.00 0.00 9 1011.4
20260509231032 92 166 7.0 13.0 0.00 0.00 0.00 9 1011.4
20260509230529 92 158 6.0 13.0 0.00 0.00 0.00 9 1011.4
20260509230033 92 167 5.0 10.0 0.00 0.00 0.00 9 1011.5
20260509225530 92 156 5.0 11.0 0.00 0.00 0.00 9 1011.5
20260509225027 92 176 3.0 11.0 0.00 0.00 0.00 9 1011.7
20260509224529 92 186 7.0 11.0 0.00 0.00 0.00 9 1011.7
20260509224027 92 359 2.0 13.0 0.00 0.00 0.00 9 1011.6
20260509223526 92 323 4.0 13.0 0.00 0.00 0.00 9 1011.8
20260509223028 92 131 6.0 12.0 0.00 0.00 0.00 9 1011.9
20260509222524 93 129 4.0 8.0 0.00 0.00 0.00 9 1011.9
20260509222025 92 189 5.0 12.0 0.00 0.00 0.00 9 1012.0
20260509221524 93 164 7.0 12.0 0.00 0.00 0.00 9 1012.0
20260509221024 93 175 5.0 11.0 0.00 0.00 0.00 9 1012.1
20260509220523 93 186 5.0 8.0 0.00 0.00 0.00 9 1012.2
20260509220021 92 121 5.0 9.0 0.00 0.00 0.00 10 1012.2
20260509215523 92 104 5.0 12.0 0.00 0.00 0.00 9 1012.3
20260509215020 93 172 7.0 11.0 0.00 0.00 0.00 8 1012.3
20260509214520 92 126 5.0 9.0 0.00 0.00 0.00 9 1012.4
20260509214019 92 167 2.0 6.0 0.00 0.00 0.00 9 1012.5
20260509213521 91 167 0.0 13.0 0.00 0.00 0.00 9 1012.6
20260509213019 92 185 6.0 13.0 0.00 0.00 0.00 9 1012.8
20260509212518 92 259 5.0 10.0 0.00 0.00 0.00 9 1012.8
20260509212017 92 196 1.0 9.0 0.00 0.00 0.00 9 1012.9
20260509211515 92 219 4.0 9.0 0.00 0.00 0.00 10 1013.0
20260509211014 91 136 2.0 5.0 0.00 0.00 0.00 10 1013.1
20260509210513 91 9 1.0 5.0 0.00 0.00 0.00 10 1013.2
20260509210015 91 190 0.0 7.0 0.00 0.00 0.00 9 1013.3
20260509205511 91 202 3.0 9.0 0.00 0.00 0.00 9 1013.4
20260509205010 91 197 5.0 12.0 0.00 0.00 0.00 9 1013.5
20260509204510 92 220 6.0 12.0 0.00 0.00 0.00 10 1013.6
20260509204012 91 193 4.0 10.0 0.00 0.00 0.00 8 1013.5
20260509203611 91 192 6.0 12.0 0.00 0.00 0.00 8 1013.7
20260509203009 91 137 5.0 12.0 0.00 0.00 0.00 9 1013.7
20260509202508 91 170 3.0 9.0 0.00 0.00 0.00 10 1013.8
20260509202010 91 344 3.0 10.0 0.00 0.00 0.00 9 1013.9
20260509201510 91 186 6.0 10.0 0.00 0.00 0.00 11 1014.0
20260509201007 91 214 3.0 10.0 0.00 0.00 0.00 10 1014.1
20260509200507 90 267 1.0 10.0 0.00 0.00 0.00 10 1014.2
20260509200008 90 317 2.0 10.0 0.00 0.00 0.00 10 1014.2
20260509195508 90 263 6.0 9.0 0.00 0.00 0.00 11 1014.3
20260509195006 90 201 5.0 9.0 0.00 0.00 0.00 11 1014.4
20260509194510 90 96 2.0 9.0 0.00 0.00 0.00 12 1014.4
20260509194005 90 125 4.0 10.0 0.00 0.00 0.00 11 1014.5
20260509193504 90 198 6.0 10.0 0.00 0.00 0.00 11 1014.5
20260509193004 89 172 4.0 10.0 0.00 0.00 0.00 12 1014.6
20260509192503 89 236 3.0 10.0 0.00 0.00 0.00 11 1014.7
20260509192003 89 218 5.0 9.0 0.00 0.00 0.00 12 1014.7
20260509191503 88 180 0.0 9.0 0.00 0.00 0.00 12 1014.7
20260509191005 89 257 5.0 8.0 0.00 0.00 0.00 14 1014.7
20260509190503 88 155 2.0 7.0 0.00 0.00 0.00 13 1014.8
20260509190001 89 221 2.0 7.0 0.00 0.00 0.00 14 1014.8
20260509185600 88 246 2.0 6.0 0.00 0.00 0.00 13 1014.9
20260509185059 87 192 3.0 6.0 0.00 0.00 0.00 15 1014.9
20260509184602 86 261 1.0 7.0 0.00 0.00 0.00 15 1015.0
20260509184058 87 123 5.0 7.0 0.00 0.00 0.00 13 1015.1
20260509183559 87 207 2.0 6.0 0.00 0.00 0.00 14 1015.1
20260509183134 86 260 2.0 7.0 0.00 0.00 0.00 14 1015.1
20260509182554 86 244 4.0 7.0 0.00 0.00 0.00 15 1015.2
20260509182052 86 231 1.0 7.0 0.00 0.00 0.00 15 1015.2
20260509181608 85 167 3.0 7.0 0.00 0.00 0.00 15 1015.4
20260509181051 85 236 2.0 7.0 0.00 0.00 0.00 15 1015.4
20260509180550 85 176 3.0 7.0 0.00 0.00 0.00 15 1015.5
20260509180050 85 213 3.0 7.0 0.00 0.00 0.00 16 1015.5
20260509175548 84 221 0.0 7.0 0.00 0.00 0.00 15 1015.6
20260509175046 84 217 0.0 7.0 0.00 0.00 0.00 15 1015.6
20260509174545 84 150 1.0 5.0 0.00 0.00 0.00 15 1015.6
20260509174044 83 164 2.0 5.0 0.00 0.00 0.00 15 1015.7
20260509173542 82 286 0.0 5.0 0.00 0.00 0.00 15 1015.6
20260509173040 81 286 2.0 5.0 0.00 0.00 0.00 16 1015.7
20260509172539 81 291 1.0 5.0 0.00 0.00 0.00 17 1015.7
20260509172039 81 305 2.0 5.0 0.00 0.00 0.00 16 1015.7
20260509171538 80 192 1.0 5.0 0.00 0.00 0.00 17 1015.8
20260509171035 80 167 2.0 5.0 0.00 0.00 0.00 18 1015.8
20260509170534 79 207 0.0 6.0 0.00 0.00 0.00 18 1015.8
20260509170032 79 170 2.0 7.0 0.00 0.00 0.00 19 1015.8
20260509165530 78 142 3.0 7.0 0.00 0.00 0.00 20 1015.8
20260509165029 78 192 1.0 5.0 0.00 0.00 0.00 19 1015.8
20260509164527 77 194 3.0 7.0 0.00 0.00 0.00 20 1015.9
20260509164027 77 187 3.0 7.0 0.00 0.00 0.00 22 1015.9
20260509163524 77 194 2.0 6.0 0.00 0.00 0.00 20 1015.9
20260509163030 76 211 3.0 6.0 0.00 0.00 0.00 22 1015.9
20260509162524 76 157 3.0 6.0 0.00 0.00 0.00 23 1015.9
20260509162025 76 207 3.0 6.0 0.00 0.00 0.00 23 1015.8
20260509161519 75 213 2.0 6.0 0.00 0.00 0.00 23 1015.8
20260509161018 74 198 2.0 6.0 0.00 0.00 0.00 24 1015.9
20260509160520 74 155 2.0 6.0 0.00 0.00 0.00 24 1015.9
20260509160014 73 184 2.0 7.0 0.00 0.00 0.00 23 1015.9
20260509155514 73 213 3.0 7.0 0.00 0.00 0.00 24 1015.9
20260509155012 73 171 4.0 6.0 0.00 0.00 0.00 24 1015.8
20260509154512 72 231 3.0 6.0 0.00 0.00 0.00 25 1015.8
20260509154009 72 190 1.0 7.0 0.00 0.00 0.00 26 1015.8
20260509153507 71 215 4.0 7.0 0.00 0.00 0.00 26 1015.9
20260509153006 71 200 4.0 7.0 0.00 0.00 0.00 25 1015.9
20260509152505 71 219 3.0 7.0 0.00 0.00 0.00 26 1015.9
20260509152005 70 211 3.0 6.0 0.00 0.00 0.00 26 1015.9
20260509151503 70 190 4.0 6.0 0.00 0.00 0.00 26 1015.9
20260509151100 69 186 3.0 7.0 0.00 0.00 0.00 26 1015.8
20260509150559 69 201 4.0 7.0 0.00 0.00 0.00 26 1015.8
20260509150058 69 144 4.0 6.0 0.00 0.00 0.00 26 1015.9
20260509145556 68 156 3.0 7.0 0.00 0.00 0.00 27 1015.8
20260509145055 68 215 4.0 7.0 0.00 0.00 0.00 28 1015.8
20260509144553 67 213 2.0 5.0 0.00 0.00 0.00 28 1015.8
20260509144052 66 200 1.0 5.0 0.00 0.00 0.00 29 1015.8
20260509143550 66 200 1.0 5.0 0.00 0.00 0.00 29 1015.8
20260509143050 65 286 2.0 5.0 0.00 0.00 0.00 29 1015.8
20260509142548 65 294 1.0 5.0 0.00 0.00 0.00 30 1015.7
20260509142047 66 269 3.0 5.0 0.00 0.00 0.00 29 1015.7
20260509141546 65 261 2.0 5.0 0.00 0.00 0.00 29 1015.6
20260509141046 65 326 1.0 3.0 0.00 0.00 0.00 30 1015.6
20260509140545 65 42 1.0 2.0 0.00 0.00 0.00 29 1015.6
20260509140054 65 42 1.0 2.0 0.00 0.00 0.00 29 1015.5
20260509135544 64 42 0.0 4.0 0.00 0.00 0.00 29 1015.5
20260509135045 63 42 0.0 4.0 0.00 0.00 0.00 32 1015.6
20260509134544 62 42 0.0 1.0 0.00 0.00 0.00 31 1015.5
20260509134044 62 42 0.0 2.0 0.00 0.00 0.00 31 1015.5
20260509133543 61 42 0.0 2.0 0.00 0.00 0.00 33 1015.5
20260509133043 60 42 0.0 4.0 0.00 0.00 0.00 33 1015.5
20260509132545 60 42 1.0 4.0 0.00 0.00 0.00 33 1015.5
20260509132043 59 69 0.0 4.0 0.00 0.00 0.00 33 1015.6
20260509131541 58 73 1.0 4.0 0.00 0.00 0.00 34 1015.5
20260509131040 58 74 1.0 7.0 0.00 0.00 0.00 35 1015.4
20260509130540 58 60 2.0 5.0 0.00 0.00 0.00 36 1015.3
20260509130039 57 69 3.0 5.0 0.00 0.00 0.00 35 1015.3
20260509125538 58 63 1.0 4.0 0.00 0.00 0.00 35 1015.3
20260509125038 58 43 1.0 4.0 0.00 0.00 0.00 34 1015.3
20260509124537 58 360 0.0 5.0 0.00 0.00 0.00 34 1015.1
20260509124036 58 347 1.0 6.0 0.00 0.00 0.00 32 1015.2
20260509123539 58 347 3.0 6.0 0.00 0.00 0.00 33 1015.1
20260509123035 58 321 0.0 5.0 0.00 0.00 0.00 35 1014.9
20260509122533 57 42 0.0 3.0 0.00 0.00 0.00 35 1014.8
20260509122033 58 43 0.0 4.0 0.00 0.00 0.00 32 1014.7
20260509121537 58 64 1.0 3.0 0.00 0.00 0.00 33 1014.6
20260509121031 57 64 1.0 2.0 0.00 0.00 0.00 33 1014.4
20260509120531 57 64 0.0 1.0 0.00 0.00 0.00 34 1014.4
20260509120030 57 64 0.0 1.0 0.00 0.00 0.00 35 1014.3
20260509115528 58 64 0.0 1.0 0.00 0.00 0.00 35 1014.3
20260509115027 58 64 0.0 4.0 0.00 0.00 0.00 34 1014.3
20260509114527 58 64 1.0 4.0 0.00 0.00 0.00 33 1014.3
20260509114026 59 90 0.0 4.0 0.00 0.00 0.00 33 1014.1
20260509113525 59 90 0.0 4.0 0.00 0.00 0.00 31 1014.2
20260509113024 59 94 1.0 3.0 0.00 0.00 0.00 32 1014.0
20260509112524 58 94 1.0 2.0 0.00 0.00 0.00 33 1014.0
20260509112023 59 94 0.0 4.0 0.00 0.00 0.00 31 1013.9
20260509111523 60 94 0.0 4.0 0.00 0.00 0.00 29 1013.9
20260509111022 59 130 0.0 2.0 0.00 0.00 0.00 30 1013.9
20260509110522 60 130 0.0 2.0 0.00 0.00 0.00 30 1013.8
20260509110021 60 130 1.0 2.0 0.00 0.00 0.00 29 1013.9
20260509105523 60 130 0.0 2.0 0.00 0.00 0.00 29 1013.7
20260509105024 60 130 0.0 2.0 0.00 0.00 0.00 28 1013.7
20260509104533 60 130 0.0 2.0 0.00 0.00 0.00 29 1013.7
20260509104020 60 130 0.0 2.0 0.00 0.00 0.00 29 1013.7
20260509103519 61 130 0.0 2.0 0.00 0.00 0.00 28 1013.7
20260509103019 61 130 0.0 2.0 0.00 0.00 0.00 27 1013.7
20260509102519 61 130 0.0 2.0 0.00 0.00 0.00 27 1013.6
20260509102019 61 130 0.0 2.0 0.00 0.00 0.00 28 1013.6
20260509101519 62 130 0.0 2.0 0.00 0.00 0.00 27 1013.6
20260509101021 61 130 0.0 1.0 0.00 0.00 0.00 26 1013.5
20260509100517 61 130 0.0 2.0 0.00 0.00 0.00 28 1013.6
20260509100017 61 130 0.0 4.0 0.00 0.00 0.00 26 1013.5
20260509095516 62 130 1.0 4.0 0.00 0.00 0.00 27 1013.5
20260509095015 62 130 0.0 2.0 0.00 0.00 0.00 26 1013.6
20260509094515 62 130 1.0 2.0 0.00 0.00 0.00 25 1013.5
20260509094014 62 130 0.0 1.0 0.00 0.00 0.00 28 1013.5
20260509093517 62 130 0.0 2.0 0.00 0.00 0.00 27 1013.5
20260509093013 62 130 0.0 2.0 0.00 0.00 0.00 27 1013.5
20260509092513 62 130 0.0 1.0 0.00 0.00 0.00 27 1013.4
20260509092013 62 130 0.0 1.0 0.00 0.00 0.00 27 1013.4
20260509091512 63 130 0.0 0.0 0.00 0.00 0.00 26 1013.5
20260509091013 63 130 0.0 1.0 0.00 0.00 0.00 25 1013.5
20260509090511 64 130 0.0 2.0 0.00 0.00 0.00 24 1013.4
20260509090012 65 130 0.0 6.0 0.00 0.00 0.00 22 1013.5
20260509085513 65 130 1.0 6.0 0.00 0.00 0.00 22 1013.4
20260509085010 63 142 0.0 4.0 0.00 0.00 0.00 26 1013.4
20260509084521 64 142 0.0 4.0 0.00 0.00 0.00 26 1013.4
20260509084009 64 223 0.0 2.0 0.00 0.00 0.00 25 1013.5
20260509083508 64 223 0.0 2.0 0.00 0.00 0.00 26 1013.5
20260509083009 64 223 1.0 2.0 0.00 0.00 0.00 26 1013.4
20260509082509 64 223 0.0 2.0 0.00 0.00 0.00 26 1013.4
20260509082009 64 225 0.0 2.0 0.00 0.00 0.00 26 1013.4
20260509081507 65 225 0.0 2.0 0.00 0.00 0.00 25 1013.5
20260509081011 65 225 0.0 2.0 0.00 0.00 0.00 24 1013.5
20260509080509 65 225 0.0 2.0 0.00 0.00 0.00 25 1013.5
20260509080019 64 225 0.0 4.0 0.00 0.00 0.00 26 1013.5
20260509075505 65 225 2.0 5.0 0.00 0.00 0.00 27 1013.5
20260509075004 66 225 0.0 5.0 0.00 0.00 0.00 26 1013.6
20260509074505 65 96 0.0 4.0 0.00 0.00 0.00 24 1013.6
20260509074004 65 44 0.0 4.0 0.00 0.00 0.00 25 1013.6
20260509073503 65 44 0.0 3.0 0.00 0.00 0.00 24 1013.6
20260509073004 66 44 0.0 2.0 0.00 0.00 0.00 23 1013.5
20260509072504 66 44 0.0 2.0 0.00 0.00 0.00 22 1013.6
20260509072003 66 44 0.0 2.0 0.00 0.00 0.00 23 1013.6
20260509071503 65 44 0.0 2.0 0.00 0.00 0.00 24 1013.7
20260509071004 65 44 0.0 1.0 0.00 0.00 0.00 26 1013.7
20260509070503 65 44 0.0 1.0 0.00 0.00 0.00 25 1013.7
20260509070001 65 44 0.0 2.0 0.00 0.00 0.00 26 1013.7
20260509065500 65 44 0.0 2.0 0.00 0.00 0.00 26 1013.6
20260509065100 65 44 0.0 1.0 0.00 0.00 0.00 26 1013.7
20260509064617 65 44 0.0 1.0 0.00 0.00 0.00 25 1013.7
20260509064100 65 44 0.0 0.0 0.00 0.00 0.00 26 1013.6
20260509063558 66 44 0.0 2.0 0.00 0.00 0.00 25 1013.6
20260509063100 66 44 0.0 2.0 0.00 0.00 0.00 24 1013.6
20260509062557 66 44 0.0 1.0 0.00 0.00 0.00 24 1013.6
20260509062057 67 44 0.0 2.0 0.00 0.00 0.00 21 1013.7
20260509061556 67 44 0.0 2.0 0.00 0.00 0.00 23 1013.7
20260509061053 67 44 0.0 1.0 0.00 0.00 0.00 23 1013.7
20260509060552 67 44 0.0 2.0 0.00 0.00 0.00 22 1013.7
20260509060051 67 44 0.0 2.0 0.00 0.00 0.00 22 1013.8
20260509055551 67 44 0.0 2.0 0.00 0.00 0.00 21 1013.8
20260509055054 67 44 0.0 2.0 0.00 0.00 0.00 22 1013.8
20260509054553 68 44 0.0 2.0 0.00 0.00 0.00 21 1013.8
20260509054052 68 44 0.0 2.0 0.00 0.00 0.00 20 1013.9
20260509053551 67 44 0.0 4.0 0.00 0.00 0.00 22 1013.8
20260509053052 67 44 1.0 4.0 0.00 0.00 0.00 22 1013.9
20260509052550 67 44 1.0 2.0 0.00 0.00 0.00 22 1014.0
20260509052049 68 44 0.0 2.0 0.00 0.00 0.00 22 1014.0
20260509051558 68 44 0.0 2.0 0.00 0.00 0.00 22 1014.0
20260509051049 68 44 1.0 4.0 0.00 0.00 0.00 21 1014.1
20260509050549 68 44 0.0 4.0 0.00 0.00 0.00 20 1014.1
20260509050049 68 46 2.0 3.0 0.00 0.00 0.00 20 1014.1
20260509045548 68 136 0.0 2.0 0.00 0.00 0.00 21 1014.1
20260509045048 68 136 0.0 2.0 0.00 0.00 0.00 21 1014.2
20260509044549 68 136 0.0 2.0 0.00 0.00 0.00 22 1014.1
20260509044047 69 136 0.0 2.0 0.00 0.00 0.00 21 1014.1
20260509043548 69 136 0.0 2.0 0.00 0.00 0.00 21 1014.1
20260509043048 68 136 0.0 2.0 0.00 0.00 0.00 22 1014.1
20260509042550 68 136 0.0 2.0 0.00 0.00 0.00 23 1014.0
20260509042048 68 136 0.0 2.0 0.00 0.00 0.00 24 1014.0
20260509041548 69 140 0.0 1.0 0.00 0.00 0.00 25 1013.9
20260509041047 68 140 0.0 1.0 0.00 0.00 0.00 24 1013.9
20260509040550 69 140 0.0 1.0 0.00 0.00 0.00 25 1013.8
20260509040046 69 140 0.0 1.0 0.00 0.00 0.00 24 1013.7
20260509035546 70 140 0.0 0.0 0.00 0.00 0.00 24 1013.7
20260509035046 70 140 0.0 0.0 0.00 0.00 0.00 22 1013.7
20260509034548 70 140 0.0 0.0 0.00 0.00 0.00 22 1013.6
20260509034045 70 140 0.0 0.0 0.00 0.00 0.00 22 1013.5
20260509033545 70 140 0.0 4.0 0.00 0.00 0.00 22 1013.4
20260509033045 71 140 0.0 4.0 0.00 0.00 0.00 22 1013.3
20260509032545 72 43 0.0 2.0 0.00 0.00 0.00 20 1013.2
20260509032042 72 43 0.0 1.0 0.00 0.00 0.00 20 1013.1
20260509031541 72 43 0.0 1.0 0.00 0.00 0.00 19 1013.0
20260509031040 73 43 0.0 1.0 0.00 0.00 0.00 19 1012.9
20260509030540 73 43 0.0 1.0 0.00 0.00 0.00 19 1012.8
20260509030040 73 43 0.0 2.0 0.00 0.00 0.00 18 1012.8
20260509025540 73 43 0.0 2.0 0.00 0.00 0.00 19 1012.8
20260509025043 74 43 0.0 4.0 0.00 0.00 0.00 18 1012.7
20260509024539 74 26 1.0 2.0 0.00 0.00 0.00 19 1012.6
20260509024039 75 26 0.0 2.0 0.00 0.00 0.00 17 1012.5
20260509023541 76 26 0.0 2.0 0.00 0.00 0.00 17 1012.4
20260509023041 76 26 0.0 1.0 0.00 0.00 0.00 17 1012.4
20260509022541 76 26 0.0 2.0 0.00 0.00 0.00 17 1012.4
20260509022039 77 26 0.0 2.0 0.00 0.00 0.00 15 1012.3
20260509021539 77 26 0.0 2.0 0.00 0.00 0.00 15 1012.2
20260509021039 78 26 0.0 2.0 0.00 0.00 0.00 14 1012.2
20260509020538 78 13 0.0 1.0 0.00 0.00 0.00 15 1012.2
20260509020039 79 13 0.0 1.0 0.00 0.00 0.00 14 1012.2
20260509015539 80 13 0.0 4.0 0.00 0.00 0.00 13 1012.1
20260509015037 81 13 0.0 4.0 0.00 0.00 0.00 12 1012.0
20260509014544 82 13 0.0 2.0 0.00 0.00 0.00 11 1012.0
20260509014037 83 13 1.0 5.0 0.00 0.00 0.00 10 1011.9
20260509013537 83 20 2.0 7.0 0.00 0.00 0.00 10 1011.9
20260509013043 84 23 1.0 7.0 0.00 0.00 0.00 10 1011.9
20260509012537 84 21 4.0 6.0 0.00 0.00 0.00 9 1011.9
20260509012036 84 26 2.0 6.0 0.00 0.00 0.00 10 1011.9
20260509011541 84 16 2.0 8.0 0.00 0.00 0.00 9 1011.8
20260509011036 85 39 4.0 9.0 0.00 0.00 0.00 9 1011.9
20260509010538 85 33 3.0 9.0 0.00 0.00 0.00 9 1011.9
20260509010036 85 346 3.0 10.0 0.00 0.00 0.00 9 1011.9
20260509005536 85 61 3.0 10.0 0.00 0.00 0.00 9 1011.9
20260509005036 86 18 4.0 9.0 0.00 0.00 0.00 9 1011.8
20260509004535 86 18 4.0 11.0 0.00 0.00 0.00 9 1011.9
20260509004035 86 40 4.0 11.0 0.00 0.00 0.00 9 1011.9
20260509003535 86 343 6.0 10.0 0.00 0.00 0.00 8 1011.9
20260509003036 86 7 3.0 10.0 0.00 0.00 0.00 9 1011.9
20260509002534 87 355 3.0 13.0 0.00 0.00 0.00 9 1011.9
20260509002034 87 350 6.0 15.0 0.00 0.00 0.00 9 1011.9
20260509001536 87 1 7.0 15.0 0.00 0.00 0.00 9 1011.9
20260509001034 87 313 6.0 12.0 0.00 0.00 0.00 9 1011.9
20260509000533 87 344 6.0 14.0 0.00 0.00 0.00 9 1011.9
20260509000033 87 353 3.0 12.0 0.00 0.00 0.00 9 1011.9
20260508235534 88 352 6.0 13.0 0.00 0.00 0.00 9 1012.0
20260508235033 88 339 7.0 13.0 0.00 0.00 0.00 9 1012.0
20260508234535 87 20 5.0 11.0 0.00 0.00 0.00 8 1012.0
20260508234034 87 352 2.0 8.0 0.00 0.00 0.00 9 1012.0
20260508233532 87 17 2.0 8.0 0.00 0.00 0.00 9 1012.0